[[{"header":{"parameterUnit":"m.s-1","parameterCategory":1,"la1":30.2991,"la2":30.254,"lo1":-89.0895,"lo2":-89.0444,"dy":0.0017,"dx":0.0017,"nx":28,"ny":28,"refTime":"2025-07-07T03:00:00:Z","depth":0,"parameterNumber":2,"parameterNumberName":"U-component_of_WINDS"},"data":[0,0,0,0,0,0,0,0,0,0,0,0,0,0,0,0,0,0,0,0,0,0,0,0,0,0,0,0,0,0,0,0,0,0,0,0,0,0,0,0,0,0,0,0,0,0,0,0,0,0,0,0,0,0,0,0,0,0,1.6472,1.6473,0,1.6505,1.6506,1.6506,1.6459,1.6458,1.6456,1.6454,1.649,1.6493,1.6495,0,0,0,0,0,0,0,0,0,0,0,0,0,1.6368,1.637,1.6472,1.6473,1.6473,1.6505,1.6506,1.6506,1.6459,1.6457,1.6455,1.6453,1.649,1.6493,1.6496,0,0,0,0,0,0,0,0,0,0,0,0,0,1.6408,1.6371,1.6472,1.6454,1.6452,1.6505,1.6506,1.6506,1.646,1.6457,1.6455,1.6453,1.6489,1.6492,1.6496,1.657,0,0,1.6508,1.6509,0,0,0,0,0,0,0,0,1.6406,1.6412,1.6456,1.6455,1.6453,1.6476,1.6482,1.6528,1.6461,1.6457,1.6454,1.6451,1.6488,1.6491,1.6503,1.6571,1.6573,1.6508,1.651,1.6512,1.6513,0,0,0,0,0,0,0,1.6403,1.6411,1.6485,1.6457,1.6455,1.6443,1.6446,1.6491,1.6486,1.6457,1.6454,1.6458,1.6487,1.65,1.6504,1.6573,1.6508,1.6511,1.6514,1.6515,1.67,1.6702,0,0,0,0,0,0,1.6403,1.6409,1.6484,1.6486,1.6423,1.6447,1.6451,1.6471,1.6485,1.6485,1.646,1.6456,1.6494,1.6499,1.6505,1.6589,1.6512,1.6515,1.6518,1.6697,1.67,1.6703,0,0,0,0,0,0,1.6401,1.641,1.6483,1.6447,1.6455,1.6452,1.6475,1.6473,1.6486,1.6488,1.6487,1.6475,1.6493,1.6499,1.6553,1.659,1.6517,1.6521,1.6694,1.6698,1.6702,1.6761,0,0,0,0,0,0,1.6398,1.6409,1.6438,1.6447,1.6457,1.6531,1.6477,1.6475,1.6492,1.6487,1.6501,1.6501,1.6491,1.6547,1.6557,1.6594,1.6523,1.6691,1.6696,1.67,1.6755,1.6766,1.6775,0,0,0,0,0,1.6394,1.6454,1.6439,1.6449,1.6492,1.6533,1.6539,1.6526,1.6496,1.6524,1.6524,1.65,1.6585,1.6553,1.6563,1.6602,1.6688,1.6694,1.67,1.6751,1.6764,1.6775,0,0,0,0,0,0,1.6451,1.6455,1.6439,1.6504,1.6518,1.6525,1.656,1.654,1.6564,1.6558,1.6542,1.6545,1.6602,1.6607,1.6573,1.6672,1.6631,1.664,1.6666,1.6679,1.6689,1.6686,1.6527,0,0,0,0,0,1.6471,1.6503,1.6506,1.6563,1.657,1.6564,1.6582,1.657,1.6584,1.6591,1.6595,1.6611,1.664,1.666,1.6688,1.6756,1.6757,1.6787,1.6797,1.6805,1.6813,1.6846,1.6859,1.6723,1.6723,1.6722,0,0,1.6513,1.6519,1.6541,1.6574,1.6584,1.6617,1.657,1.6608,1.6632,1.6597,1.6646,1.665,1.6666,1.6726,1.6753,1.6733,1.685,1.6813,1.682,1.6822,1.6854,1.6866,1.6878,1.6727,1.6726,1.6725,0,0,1.6605,1.6614,1.6661,1.6671,1.6685,1.668,1.6691,1.67,1.6701,1.675,1.6723,1.6752,1.6804,1.6815,1.6828,1.6921,1.6899,1.6931,1.6983,1.7016,1.7026,1.7036,1.7067,1.7078,1.6938,1.6938,1.6938,0,1.6656,1.6704,1.6688,1.6727,1.6741,1.6708,1.6755,1.6766,1.6789,1.68,1.6776,1.6838,1.6847,1.6908,1.693,1.6942,1.6953,1.6929,1.7026,1.7035,1.7044,1.7073,1.7085,1.6941,1.6941,1.6941,1.694,0,1.6764,1.6798,1.6834,1.6855,1.6874,1.6917,1.6906,1.6927,1.6913,1.691,1.6959,1.6968,1.6995,1.7008,1.6997,1.7067,1.7053,1.7029,1.6987,1.706,1.7088,1.7099,1.6947,1.6945,1.6944,1.6943,0,0,1.6896,1.6904,1.6917,1.6925,1.6937,1.6963,1.7003,1.7028,1.7045,1.7062,1.7094,1.7137,1.7112,1.7127,1.7115,1.7145,1.7214,1.7115,1.7115,1.7132,1.729,1.7308,1.7321,1.72,1.7202,1.7204,1.7288,0,1.6986,1.7054,1.7039,1.7106,1.7136,1.7104,1.7138,1.7149,1.7147,1.7172,1.7169,1.7199,1.7166,1.7174,1.7201,1.72,1.7246,1.7194,1.7229,1.7231,1.7225,1.7336,1.7356,1.7435,1.7299,1.7301,1.7302,0,1.7102,1.7119,1.7189,1.7193,1.7205,1.7236,1.7256,1.7281,1.7291,1.7287,1.7302,1.7284,1.7322,1.728,1.7333,1.7298,1.7311,1.7312,1.7315,1.7317,1.727,1.734,1.746,1.7471,1.7319,1.7318,1.7317,0,1.7187,1.7229,1.7275,1.7283,1.729,1.7312,1.7315,1.7324,1.7338,1.7356,1.7365,1.7388,1.74,1.7418,1.7405,1.7376,1.7459,1.7417,1.7456,1.7456,1.7475,1.7473,1.7597,1.7485,1.7485,1.7485,1.7485,0,1.7289,1.7333,1.7313,1.7342,1.7389,1.737,1.7417,1.7417,1.7424,1.7451,1.7425,1.7452,1.7435,1.7459,1.745,1.7493,1.75,1.7497,1.7494,1.7499,1.7499,1.7506,1.75,1.7488,1.7488,1.7487,1.7486,0,1.7393,1.7382,1.743,1.7431,1.7432,1.7466,1.7466,1.7492,1.7487,1.7521,1.7529,1.752,1.7548,1.7537,1.7567,1.7561,1.7615,1.7606,1.7611,1.7608,1.7647,1.7643,1.778,1.7796,1.7675,1.7676,1.7677,0,1.7459,1.7491,1.7494,1.7509,1.7514,1.754,1.7554,1.7536,1.7552,1.7565,1.7589,1.7613,1.7632,1.7677,1.7674,1.7695,1.7685,1.7731,1.7689,1.7691,1.7684,1.7681,1.7683,1.774,1.7741,1.7743,1.7744,0,1.7575,1.7567,1.7588,1.7606,1.7623,1.7637,1.7649,1.7663,1.7645,1.7664,1.7691,1.7705,1.7733,1.7757,1.7776,1.778,1.7759,1.7757,1.7767,1.7771,1.7772,1.777,1.7633,1.7754,1.7753,1.7752,1.7752,1.7751,1.766,1.7686,1.7691,1.7714,1.772,1.7731,1.7754,1.775,1.7772,1.7792,1.7781,1.7811,1.7818,1.7841,1.7847,1.787,1.7852,1.7867,1.7871,1.7874,1.7878,1.7769,1.7874,1.7874,1.7873,1.7873,1.7873,0,1.7774,1.7774,1.7796,1.7811,1.7829,1.7805,1.7816,1.7833,1.7859,1.7867,1.7885,1.7914,1.7936,1.7934,1.7954,1.7973,1.7964,1.7979,1.7977,1.7978,1.7894,1.7883,1.7986,1.7986,1.7986,1.7986,1.7986,1.7986,1.7835,1.7876,1.7868,1.7911,1.7912,1.794,1.7947,1.7956,1.7962,1.7995,1.8013,1.801,1.8014,1.8034,1.8053,1.8051,1.8059,1.8078,1.8073,1.7995,1.7984,1.7973,1.7962,1.808,1.8081,1.8154,1.8155,1.8155]},{"header":{"parameterUnit":"m.s-1","parameterCategory":1,"la1":30.2991,"la2":30.254,"lo1":-89.0895,"lo2":-89.0444,"dy":0.0017,"dx":0.0017,"nx":28,"ny":28,"refTime":"2025-07-07T03:00:00:Z","depth":0,"parameterNumber":3,"parameterNumberName":"V-component_of_WINDS"},"data":[0,0,0,0,0,0,0,0,0,0,0,0,0,0,0,0,0,0,0,0,0,0,0,0,0,0,0,0,0,0,0,0,0,0,0,0,0,0,0,0,0,0,0,0,0,0,0,0,0,0,0,0,0,0,0,0,0,0,5.0618,5.0618,0,5.0657,5.0658,5.0658,5.0597,5.0595,5.0593,5.0591,5.0628,5.0631,5.0634,0,0,0,0,0,0,0,0,0,0,0,0,0,5.0485,5.0488,5.0618,5.0618,5.0619,5.0657,5.0658,5.0658,5.0598,5.0595,5.0593,5.059,5.0627,5.0631,5.0634,0,0,0,0,0,0,0,0,0,0,0,0,0,5.0535,5.0489,5.0618,5.0593,5.0592,5.0657,5.0658,5.0658,5.0598,5.0595,5.0592,5.0589,5.0626,5.0631,5.0635,5.0725,0,0,5.0648,5.065,0,0,0,0,0,0,0,0,5.0533,5.054,5.0596,5.0595,5.0593,5.0619,5.0624,5.0681,5.0599,5.0596,5.0591,5.0588,5.0628,5.0632,5.0646,5.0727,5.0729,5.0649,5.0651,5.0653,5.0655,0,0,0,0,0,0,0,5.0529,5.0538,5.0633,5.0597,5.0595,5.0579,5.0582,5.0635,5.0629,5.0596,5.0591,5.0597,5.0626,5.0642,5.0646,5.0729,5.0649,5.0653,5.0655,5.0657,5.0882,5.0886,0,0,0,0,0,0,5.0529,5.0536,5.0632,5.0635,5.0555,5.0584,5.0588,5.0614,5.0628,5.0627,5.06,5.0594,5.0636,5.0641,5.0647,5.0751,5.0653,5.0657,5.066,5.0879,5.0883,5.0887,0,0,0,0,0,0,5.0527,5.0538,5.063,5.0584,5.0594,5.0589,5.0619,5.0617,5.0632,5.0631,5.0629,5.0617,5.0634,5.0641,5.0706,5.0752,5.0659,5.0663,5.0875,5.088,5.0885,5.0962,0,0,0,0,0,0,5.0523,5.0538,5.0573,5.0585,5.0597,5.069,5.0622,5.062,5.064,5.0633,5.0647,5.0646,5.0632,5.0699,5.071,5.0756,5.0667,5.0871,5.0877,5.0883,5.0955,5.0969,5.098,0,0,0,0,0,5.0519,5.0594,5.0576,5.0588,5.0642,5.0693,5.0699,5.0682,5.0644,5.0679,5.0678,5.0646,5.0746,5.0707,5.0718,5.0766,5.0868,5.0876,5.0883,5.0949,5.0966,5.098,0,0,0,0,0,0,5.0586,5.0595,5.0575,5.0656,5.0674,5.0682,5.0725,5.0701,5.0729,5.0721,5.0698,5.0701,5.077,5.0775,5.0731,5.0853,5.08,5.081,5.0847,5.0863,5.0875,5.0871,5.0671,0,0,0,0,0,5.0611,5.0653,5.0658,5.0729,5.0739,5.0731,5.0752,5.0738,5.0755,5.0762,5.0765,5.0782,5.0817,5.0841,5.0873,5.0956,5.0956,5.0995,5.1007,5.1018,5.1026,5.1067,5.1083,5.0911,5.0911,5.0911,0,0,5.0662,5.0672,5.07,5.0743,5.0755,5.0797,5.0738,5.0785,5.0815,5.0769,5.0829,5.0833,5.085,5.0923,5.0956,5.0929,5.1074,5.1027,5.1036,5.1038,5.1077,5.1093,5.1107,5.0916,5.0916,5.0915,0,0,5.0776,5.0789,5.0848,5.0861,5.088,5.0874,5.0889,5.09,5.0901,5.0962,5.0926,5.0961,5.1023,5.1035,5.105,5.1167,5.1137,5.1178,5.1244,5.1284,5.1298,5.1309,5.1348,5.1362,5.1187,5.1187,5.1187,0,5.0836,5.0899,5.0881,5.0931,5.0949,5.091,5.0968,5.0981,5.101,5.1023,5.0993,5.1068,5.1077,5.1151,5.1179,5.1194,5.1207,5.1175,5.1297,5.1309,5.132,5.1356,5.1371,5.1192,5.1191,5.1191,5.119,0,5.0971,5.1015,5.106,5.1089,5.1113,5.1167,5.1155,5.1181,5.1164,5.116,5.1221,5.123,5.1262,5.1279,5.1263,5.1351,5.1333,5.1302,5.1248,5.1341,5.1375,5.1389,5.1198,5.1197,5.1195,5.1194,0,0,5.1128,5.1145,5.1161,5.1173,5.119,5.1223,5.1274,5.1306,5.1328,5.1349,5.1389,5.1441,5.1411,5.1427,5.1412,5.1448,5.1536,5.1411,5.1411,5.1431,5.1629,5.1651,5.1668,5.1518,5.152,5.1522,5.1627,0,5.1238,5.1327,5.1311,5.1396,5.1435,5.1397,5.1441,5.1456,5.1454,5.1485,5.1482,5.1518,5.1477,5.1486,5.1521,5.1518,5.1575,5.1511,5.1552,5.1554,5.1546,5.1686,5.171,5.1808,5.164,5.1643,5.1644,0,5.1379,5.1405,5.1494,5.1503,5.1519,5.1559,5.1585,5.1617,5.1631,5.1627,5.1645,5.1623,5.1671,5.1619,5.1683,5.164,5.1656,5.1657,5.1661,5.1662,5.1603,5.1688,5.184,5.1853,5.1665,5.1664,5.1662,0,5.148,5.1538,5.1597,5.1609,5.1622,5.165,5.1657,5.1669,5.1688,5.1711,5.1723,5.1752,5.1767,5.1789,5.1774,5.1737,5.184,5.1787,5.1835,5.1835,5.1856,5.1855,5.201,5.1872,5.1872,5.1871,5.1871,0,5.1604,5.1659,5.1643,5.1679,5.1739,5.172,5.1779,5.1781,5.1792,5.1827,5.1797,5.183,5.1809,5.184,5.1829,5.1882,5.189,5.1886,5.1882,5.1887,5.1888,5.1895,5.1887,5.1875,5.1874,5.1874,5.1873,0,5.1726,5.1718,5.178,5.1787,5.179,5.1834,5.1839,5.1872,5.1868,5.1912,5.1921,5.1914,5.1948,5.1936,5.1973,5.1966,5.2033,5.2021,5.2028,5.2024,5.2071,5.2066,5.2235,5.2254,5.2107,5.2108,5.211,0,5.1804,5.1846,5.1857,5.1878,5.1887,5.1922,5.1941,5.1924,5.1945,5.1964,5.1994,5.2026,5.2051,5.2108,5.2104,5.2132,5.2119,5.2176,5.2123,5.2126,5.2116,5.2113,5.2115,5.2186,5.2188,5.2189,5.219,0,5.1942,5.1936,5.1965,5.1993,5.2017,5.2038,5.2056,5.2075,5.2058,5.2083,5.2118,5.2138,5.2175,5.2206,5.2231,5.2236,5.2209,5.2208,5.2219,5.2224,5.2224,5.2222,5.2053,5.2203,5.2202,5.2201,5.22,5.22,5.2042,5.2076,5.2089,5.2122,5.2134,5.2151,5.2181,5.2181,5.221,5.2239,5.2227,5.2267,5.2278,5.2309,5.2317,5.2347,5.2324,5.2343,5.2347,5.2351,5.2356,5.2222,5.2352,5.2351,5.2351,5.2351,5.235,0,5.2176,5.2182,5.2213,5.2239,5.2264,5.2239,5.2257,5.2279,5.2315,5.2329,5.2353,5.2392,5.2422,5.2421,5.2449,5.2472,5.2461,5.248,5.2476,5.2477,5.2376,5.2361,5.2488,5.2488,5.2488,5.2488,5.2488,5.2488,5.2248,5.2303,5.2298,5.2357,5.2362,5.2401,5.2413,5.2428,5.2439,5.2484,5.2508,5.2508,5.2515,5.2542,5.2568,5.2567,5.2577,5.26,5.2594,5.2498,5.2485,5.2471,5.2457,5.2603,5.2603,5.2692,5.2693,5.2694]}]]